Probability
0 0 0 0 0 0 0 0 0 0 0 0 0 0 0 0 0 0 0 0 0 0 0 0 0 0 0 0 0 0 0 0 0 0 0 0 0 0 0 0 0 0 0
0 0 0 0 0 0 0 0 0 0 0 0 0 0 0 0 0 0 0 0 0 0 0 0 0 0 0 0 0 0 0 0 0 0 0 0 0 0 0 0 0 0 0
0 0 0 0 0 0 0 0 0 0 0 0 0 0 0 0 0 0 0 0 0 0 0 0 0 0 0 0 0 0 0 0 0 0 0 0 0 0 0 0 0 0 0
0 0 0 0 0 0 0 0 0 0 0 0 0 0 0 0 0 0 0 0 0 0 0 0 0 0 0 0 0 0 0 0 0 0 0 0 0 0 0 0 0 0 0
0 0 0 0 0 0 0 0 0 0 0 0 0 0 0 0 0 0 0 0 0 0 0 0 0 0 0 0 0 0 0 0 0 0 0 0 0 0 0 0 0 0 0
0 0 0 0 0 0 0 0 0 0 0 0 0 0 0 0 0 0 0 0 0 0 0 0 0 0 0 0 0 0 0 0 0 0 0 0 0 0 0 0 0 0 0
0 0 0 0 0 0 0 0 0 0 0 0 0 0 0 0 0 0 0 0 0 0 0 0 0 0 0 0 0 0 0 0 0 0 0 0 0 0 0 0 0 0 0
0 0 0 0 0 0 0 0 0 0 0 0 0 0 0 0 0 0 0 0 0 0 0 0 0 0 0 0 0 0 0 0 0 0 0 0 0 0 0 0 0 0 0
0 0 0 0 0 0 0 0 0 0 0 0 0 0 0 0 0 0 0 0 0 0 0 0 0 0 0 0 0 0 0 0 0 0 0 0 0 0 0 0 0 0 0
0 0 0 0 0 0 0 0 0 0 0 0 0 0 0 0 0 0 0 0 0 0 0 0 0 0 0 0 0 0 0 0 0 0 0 0 0 0 0 0 0 0 0
0 0 0 0 0 0 0 0 0 0 0 0 0 0 0 0 0 0 0 0 0 0 0 0 0 0 0 0 0 0 0 0 0 0 0 0 0 0 0 0 0 0 0
0 0 0 0 0 0 0 0 0 0 0 0 0 0 0 0 0 0 0 0 0 0 0 0 0 0 0 0 0 0 0 0 0 0 0 0 0 0 0 0 0 0 0
0 0 0 0 0 0 0 0 0 0 0 0 0 0 0 0 0 0 0 0 0 0 0 0 0 0 0 0 0 0 0 0 0 0 0 0 0 0 0 0 0 0 0
0 0 0 0 0 0 0 0 0 0 0 0 0 0 0 0 0 0 0 0 0 0 0 0 0 0 0 0 0 0 0 0 0 0 0 0 0 0 0 0 0 0 0
0 0 0 0 0 0 0 0 0 0 0 0 0 0 0 0 0 0 0 0 0 0 0 0 0 0 0 0 0 0 0 0 0 0 0 0 0 0 0 0 0 0 0
0 0 0 0 0 0 0 0 0 0 0 0 0 0 0 0 0 0 0 0 0 0 0 0 0 0 0 0 0 0 0 0 0 0 0 0 0 0 0 0 0 0 0
0 0 0 0 0 0 0 0 0 0 0 0 0 0 0 0 0 0 0 0 0 0 0 0 0 0 0 0 0 0 0 0 0 0 0 0 0 0 0 0 0 0 0
0 0 0 0 0 0 0 0 0 0 0 0 0 0 0 0 0 0 0 0 0 0 0 0 0 0 0 0 0 0 0 0 0 0 0 0 0 0 0 0 0 0 0
0 0 0 0 0 0 0 0 0 0 0 0 0 0 0 0 0 0 0 0 0 0 0 0 0 0 0 0 0 0 0 0 0 0 0 0 0 0 0 0 0 0 0
0 0 0 0 0 0 0 0 0 0 0 0 0 0 0 0 0 0 0 0 0 0 0 0 0 0 0 0 0 0 0 0 0 0 0 0 0 0 0 0 0 0 0
0 0 0 0 0 0 0 0 0 0 0 0 0 0 0 0 0 0 0 0 0 0 0 0 0 0 0 0 0 0 0 0 0 0 0 0 0 0 0 0 0 0 0
0 0 0 0 0 0 0 0 0 0 0 0 0 0 0 0 0 0 0 0 0 0 0 0 0 0 0 0 0 0 0 0 0 0 0 0 0 0 0 0 0 0 0
0 0 0 0 0 0 0 0 0 0 0 0 0 0 0 0 0 0 0 0 0 0 0 0 0 0 0 0 0 0 0 0 0 0 0 0 0 0 0 0 0 0 0
0 0 0 0 0 0 0 0 0 0 0 0 0 0 0 0 0 0 0 0 0 0 0 0 0 0 0 0 0 0 0 0 0 0 0 0 0 0 0 0 0 0 0
0 0 0 0 0 0 0 0 0 0 0 0 0 0 0 0 0 0 0 0 0 0 0 0 0 0 0 0 0 0 0 0 0 0 0 0 0 0 0 0 0 0 0
0 0 0 0 0 0 0 0 0 0 0 0 0 0 0 0 0 0 0 0 0 0 0 0 0 0 0 0 0 0 0 0 0 0 0 0 0 0 0 0 0 0 0
Height
5817 5813 5809 5804 5800 5796 5791 5786 5782 5777 5773 5769 5765 5762 5759 5756 5753 5751 5749 5747 5746 5745 5745 5746 5747 5748 5750 5752 5755 5758 5762 5766 5771 5776 5779 5784 5788 5793 5798 5802 5806 5810 5815
5817 5813 5808 5804 5800 5795 5791 5786 5782 5777 5773 5769 5765 5761 5758 5754 5751 5748 5745 5743 5741 5740 5739 5739 5740 5741 5742 5743 5746 5748 5752 5755 5761 5765 5769 5773 5778 5782 5787 5791 5796 5800 5805
5816 5812 5808 5803 5799 5795 5790 5786 5782 5777 5773 5768 5764 5761 5757 5753 5749 5745 5742 5739 5737 5735 5734 5734 5733 5733 5734 5735 5737 5739 5742 5745 5750 5755 5758 5762 5766 5771 5776 5780 5785 5790 5794
5815 5811 5807 5803 5798 5794 5790 5785 5781 5776 5772 5768 5764 5760 5756 5751 5747 5743 5740 5737 5734 5732 5730 5728 5727 5726 5726 5727 5728 5730 5733 5736 5740 5744 5748 5752 5756 5760 5765 5770 5775 5779 5784
5813 5810 5806 5802 5798 5793 5789 5784 5780 5775 5771 5767 5763 5759 5754 5750 5746 5741 5738 5734 5731 5728 5726 5724 5722 5721 5720 5720 5721 5722 5724 5727 5731 5734 5738 5742 5746 5750 5755 5759 5763 5768 5772
5811 5808 5804 5800 5796 5792 5788 5783 5779 5774 5770 5766 5762 5758 5753 5749 5744 5740 5736 5732 5729 5726 5723 5721 5718 5717 5715 5715 5714 5715 5717 5719 5722 5725 5729 5733 5736 5740 5743 5748 5752 5758 5763
5809 5806 5802 5798 5794 5790 5786 5782 5777 5773 5769 5765 5761 5756 5752 5748 5743 5739 5735 5731 5727 5724 5721 5718 5716 5714 5712 5710 5709 5709 5710 5712 5714 5718 5721 5723 5726 5730 5734 5738 5742 5746 5751
5807 5803 5799 5795 5792 5788 5784 5780 5776 5771 5767 5763 5759 5755 5751 5747 5742 5738 5734 5730 5726 5723 5719 5716 5713 5711 5708 5706 5705 5704 5704 5705 5707 5710 5712 5715 5717 5720 5724 5728 5731 5735 5740
5804 5800 5797 5793 5789 5785 5781 5777 5773 5769 5765 5761 5757 5753 5749 5745 5741 5737 5732 5729 5725 5721 5718 5714 5711 5708 5705 5703 5701 5700 5700 5700 5701 5703 5705 5706 5709 5711 5714 5717 5721 5726 5730
5800 5797 5793 5790 5786 5782 5778 5774 5770 5766 5762 5758 5755 5751 5747 5743 5739 5735 5731 5727 5723 5720 5716 5712 5709 5705 5702 5700 5698 5696 5695 5695 5696 5697 5698 5700 5701 5703 5706 5709 5712 5716 5720
5797 5793 5790 5786 5782 5778 5774 5770 5767 5763 5759 5755 5751 5748 5744 5740 5736 5733 5729 5725 5721 5718 5714 5710 5707 5703 5700 5698 5695 5694 5692 5691 5691 5692 5692 5694 5695 5697 5698 5701 5704 5707 5711
5792 5789 5785 5781 5777 5773 5770 5766 5762 5758 5755 5751 5747 5744 5740 5737 5734 5730 5727 5723 5719 5716 5712 5708 5705 5702 5699 5696 5694 5692 5690 5688 5687 5687 5688 5688 5689 5690 5691 5693 5696 5698 5702
5788 5784 5780 5776 5772 5768 5765 5761 5757 5753 5750 5747 5743 5740 5737 5733 5730 5727 5723 5720 5717 5713 5710 5706 5703 5700 5697 5694 5692 5689 5687 5685 5684 5683 5683 5683 5683 5684 5685 5687 5688 5691 5693
5782 5779 5775 5771 5767 5763 5759 5756 5752 5748 5745 5742 5739 5736 5733 5729 5726 5723 5720 5717 5714 5710 5707 5704 5700 5697 5694 5692 5689 5687 5685 5683 5681 5680 5679 5678 5678 5679 5679 5680 5681 5683 5685
5776 5773 5769 5766 5762 5758 5754 5750 5746 5743 5739 5737 5734 5731 5728 5725 5722 5719 5716 5713 5710 5707 5703 5700 5697 5694 5692 5689 5687 5684 5682 5680 5679 5677 5676 5675 5674 5674 5674 5674 5675 5676 5678
5770 5766 5763 5759 5755 5751 5748 5744 5740 5737 5733 5731 5728 5725 5722 5720 5717 5714 5711 5708 5705 5702 5699 5697 5694 5691 5688 5686 5683 5681 5679 5677 5675 5674 5672 5671 5670 5669 5669 5668 5669 5669 5670
5762 5759 5755 5752 5748 5744 5741 5737 5733 5730 5727 5724 5721 5719 5716 5713 5710 5708 5705 5702 5700 5697 5694 5692 5689 5687 5684 5682 5679 5677 5675 5673 5671 5670 5668 5667 5665 5664 5663 5663 5662 5663 5663
5754 5751 5747 5744 5740 5736 5733 5730 5727 5723 5720 5717 5714 5712 5709 5706 5704 5701 5699 5696 5693 5691 5688 5686 5684 5681 5679 5677 5674 5672 5670 5668 5666 5665 5663 5662 5660 5659 5658 5657 5657 5656 5657
5745 5742 5738 5735 5731 5728 5724 5721 5719 5716 5713 5710 5707 5704 5702 5699 5697 5694 5691 5689 5686 5684 5682 5679 5677 5675 5672 5670 5668 5666 5664 5662 5661 5659 5658 5656 5655 5653 5652 5652 5651 5651 5651
5736 5733 5729 5726 5722 5719 5716 5713 5710 5707 5705 5703 5700 5697 5694 5691 5689 5686 5684 5681 5679 5676 5674 5671 5669 5667 5665 5663 5661 5659 5657 5655 5653 5652 5651 5650 5648 5647 5646 5646 5645 5645 5644
5726 5723 5720 5716 5713 5710 5707 5704 5701 5698 5696 5694 5691 5689 5686 5684 5681 5678 5675 5673 5670 5668 5665 5663 5660 5658 5656 5654 5652 5650 5648 5647 5645 5644 5643 5642 5641 5640 5639 5639 5638 5638 5638
5716 5713 5710 5706 5703 5700 5697 5694 5692 5689 5687 5684 5682 5680 5677 5675 5672 5669 5666 5664 5661 5659 5656 5653 5651 5648 5646 5643 5641 5639 5637 5636 5635 5634 5633 5632 5632 5631 5631 5630 5630 5630 5630
5704 5701 5699 5696 5693 5690 5687 5685 5682 5680 5677 5675 5672 5670 5667 5664 5662 5659 5656 5653 5650 5648 5645 5642 5639 5636 5634 5631 5629 5627 5625 5623 5622 5621 5620 5620 5620 5620 5620 5620 5620 5621 5621
5692 5690 5687 5684 5681 5679 5676 5674 5672 5669 5667 5664 5662 5659 5656 5653 5650 5647 5644 5641 5638 5635 5632 5629 5625 5622 5619 5617 5614 5612 5610 5608 5607 5606 5606 5605 5605 5606 5606 5607 5608 5609 5610
5679 5677 5675 5672 5670 5667 5665 5663 5660 5658 5655 5653 5650 5647 5644 5641 5638 5635 5631 5628 5624 5621 5617 5613 5610 5606 5603 5600 5597 5595 5592 5591 5589 5589 5588 5588 5588 5589 5590 5591 5592 5594 5596
5666 5664 5662 5660 5658 5655 5653 5651 5649 5646 5643 5640 5637 5634 5631 5628 5624 5621 5617 5613 5609 5604 5600 5596 5592 5588 5584 5581 5578 5575 5572 5570 5569 5568 5568 5568 5568 5569 5571 5573 5575 5577 5579
Wind_Speed
20 20 21 22 22 22 22 22 22 22 21 20 19 18 18 16 15 14 13 12 13 15 18 21 24 27 29 32 34 36 39 41 42 43 45 45 45 46 46 46 47 45 44
20 21 21 22 22 22 22 22 22 22 21 20 20 19 19 18 17 16 14 13 12 13 15 18 21 24 27 30 32 34 38 40 41 43 45 46 47 46 47 47 46 47 47
20 21 21 22 22 23 22 22 22 21 21 21 20 20 20 20 19 18 16 15 13 13 14 16 18 21 24 27 30 33 35 38 40 42 45 46 47 47 47 47 47 47 46
20 21 22 22 22 22 22 22 22 21 21 21 21 21 21 20 20 19 17 16 14 13 13 14 16 19 21 24 28 31 33 35 37 39 42 45 46 47 47 47 47 47 46
20 21 21 22 22 22 22 22 22 22 21 21 21 21 21 21 21 20 19 17 15 14 14 13 14 16 18 20 23 27 30 32 34 36 39 42 44 44 45 46 47 46 46
20 21 21 22 22 22 22 22 22 22 21 21 21 21 22 22 21 20 19 18 17 15 14 14 13 13 15 17 20 22 26 29 32 33 36 39 41 43 44 45 47 47 46
21 21 22 22 22 22 23 23 22 22 21 21 21 21 21 21 21 20 20 18 17 16 15 14 13 13 13 14 16 19 22 25 28 30 33 35 38 41 43 44 45 47 46
21 22 22 23 23 23 23 23 23 22 22 21 21 21 21 21 21 20 20 18 17 17 15 14 13 13 13 13 14 16 19 22 24 27 29 32 35 38 40 43 43 45 46
22 22 23 23 24 24 24 24 24 23 22 22 21 21 21 21 21 20 20 19 18 17 16 15 14 14 13 12 12 14 16 20 22 24 27 29 32 34 36 38 40 41 43
22 23 23 24 25 25 25 25 24 24 23 23 22 22 22 21 21 20 20 19 19 18 17 16 15 14 14 12 12 12 13 16 19 22 24 26 28 31 33 34 36 38 40
23 24 25 26 26 26 26 25 25 25 24 24 23 23 22 22 21 20 20 19 19 19 19 17 16 15 13 12 11 11 12 13 16 18 21 23 25 27 30 32 33 35 36
25 26 27 27 28 28 27 27 26 26 25 24 24 23 23 22 21 21 20 20 19 19 19 18 16 15 14 13 12 11 11 12 13 16 19 21 23 25 27 29 32 34 35
27 28 29 29 29 29 28 28 27 27 25 24 24 23 23 22 22 21 20 20 19 19 19 18 17 16 15 14 13 12 12 12 12 14 16 18 21 23 25 27 30 32 34
28 29 30 31 30 30 29 28 28 27 26 25 24 23 23 22 21 21 20 20 20 19 19 19 18 17 16 15 14 13 13 12 12 13 14 16 18 20 22 25 27 30 32
30 31 32 32 31 31 30 30 29 28 27 25 25 24 22 22 21 21 20 20 20 20 20 20 19 18 17 16 15 15 14 13 13 13 13 14 16 18 20 22 25 27 29
32 33 33 33 32 32 31 31 30 28 27 26 25 24 23 22 22 21 21 21 21 21 20 20 20 19 18 18 17 16 15 15 15 15 15 15 16 17 18 20 23 25 27
34 34 34 34 33 33 32 30 29 29 28 27 26 25 24 24 23 23 23 23 22 22 22 21 21 20 20 19 19 18 18 17 17 17 17 17 17 18 19 19 21 23 25
35 35 35 34 34 33 32 30 29 28 29 28 28 27 26 25 25 25 24 24 24 23 23 23 23 22 22 21 21 20 20 19 19 19 19 19 19 20 20 20 21 22 23
37 37 36 36 35 34 33 31 30 29 29 28 29 28 28 28 27 27 26 26 26 25 25 25 25 25 24 24 23 23 23 22 22 21 21 21 20 21 21 21 21 21 22
38 38 37 37 36 34 33 32 31 30 30 29 28 28 29 29 28 28 28 28 28 28 28 28 28 28 27 27 27 27 26 26 25 25 24 23 23 22 22 23 23 23 23
40 39 38 37 36 35 34 32 31 31 30 30 29 29 29 29 30 30 30 30 30 30 30 31 31 31 31 30 30 30 30 30 29 29 28 27 26 25 25 25 25 25 25
41 40 39 38 37 35 34 33 32 31 31 31 31 31 31 31 32 32 33 33 33 33 33 34 34 34 34 34 35 35 35 34 34 33 33 32 31 30 29 28 28 27 27
43 41 40 39 37 36 35 34 33 32 32 33 33 33 33 34 34 35 35 35 36 37 37 38 38 39 39 39 39 39 39 39 39 38 38 37 36 35 35 34 33 32 31
43 42 41 40 38 37 36 35 34 34 34 34 35 35 36 36 37 38 38 39 40 41 42 43 43 43 44 44 44 44 44 44 44 44 43 43 42 41 40 39 38 37 36
44 43 41 40 38 37 36 36 36 36 36 37 37 38 38 39 40 41 42 43 44 45 46 47 47 48 48 49 49 49 49 49 49 49 48 48 47 47 46 45 44 42 41
44 43 41 40 38 37 37 37 37 38 38 39 40 40 41 43 44 45 46 47 48 49 50 50 51 52 52 53 54 54 54 54 54 54 53 53 52 52 51 50 49 48 47
Wind_Direction
357 358 358 359 0 0 1 2 2 2 2 2 2 359 357 353 346 336 323 309 290 272 259 254 250 247 244 242 241 238 236 234 232 231 233 233 232 233 233 233 233 234 234
354 354 355 356 358 358 359 359 0 1 1 1 0 359 357 353 348 342 333 323 310 290 272 262 256 252 248 245 242 240 237 235 233 231 232 233 234 234 234 234 234 235 235
351 352 353 355 356 357 357 357 358 359 359 0 359 358 356 354 351 346 340 331 321 306 289 276 265 258 253 248 245 242 239 236 234 232 233 234 235 235 235 235 236 236 236
347 349 351 352 353 354 356 356 356 356 357 357 357 357 357 355 353 350 345 337 329 319 305 290 277 267 258 252 247 243 241 238 236 234 234 235 235 236 235 235 236 235 236
342 345 347 348 349 351 353 354 355 355 355 354 354 355 356 355 354 353 350 345 337 329 320 307 293 280 268 258 251 246 243 240 238 236 235 235 236 236 235 235 234 234 235
338 341 343 345 347 348 350 352 353 353 352 352 352 353 354 353 352 352 351 350 346 340 334 323 311 299 285 270 258 252 246 242 239 238 236 236 236 237 236 236 235 235 235
335 337 338 341 343 344 346 347 348 349 349 349 349 350 352 352 352 351 351 350 348 345 342 335 325 317 304 287 270 259 251 246 243 241 240 238 237 237 238 238 237 236 236
332 333 335 337 339 340 341 342 342 343 344 344 345 346 347 348 349 350 350 349 347 346 343 339 330 323 315 301 282 267 256 250 246 243 241 239 238 238 238 239 238 237 237
330 331 332 333 334 335 336 337 337 338 339 340 340 341 342 343 345 345 346 346 346 344 341 337 331 325 319 310 295 277 263 253 248 245 243 240 239 239 239 239 239 238 238
328 329 330 330 331 331 331 331 332 332 333 333 335 336 337 338 339 341 342 342 341 341 341 338 334 329 323 316 306 291 273 261 254 249 245 242 241 239 239 239 239 238 238
326 327 327 327 327 327 327 327 327 327 328 328 328 330 331 333 335 336 337 337 337 338 339 338 337 334 330 324 313 303 289 274 264 254 247 244 242 241 240 239 239 239 239
324 324 325 325 325 325 325 324 324 324 324 324 325 325 326 327 329 331 332 333 334 335 337 337 336 335 332 328 322 312 301 289 276 264 254 249 247 244 242 240 239 238 238
321 322 322 323 323 323 322 322 321 321 321 321 322 322 322 323 324 325 326 328 329 331 332 333 333 332 330 327 323 317 309 299 287 275 264 256 252 250 247 244 242 240 239
318 319 320 320 320 320 319 319 318 318 318 318 319 319 319 319 319 320 321 322 323 325 327 329 328 328 326 323 320 316 310 302 293 285 274 264 256 251 249 247 245 244 240
314 315 317 317 317 316 316 315 314 314 313 314 314 315 315 314 314 314 315 316 317 319 321 322 324 324 325 321 316 312 308 303 298 294 284 275 267 258 254 251 248 247 243
310 312 314 314 314 314 314 312 311 310 309 310 310 311 311 310 309 309 310 311 312 312 313 315 316 317 318 318 315 311 305 300 297 294 289 280 275 270 262 256 251 249 246
308 310 311 311 311 311 311 309 308 307 307 307 308 308 308 307 307 307 307 308 308 308 308 309 309 309 310 311 311 309 305 300 295 292 289 283 277 271 267 263 257 252 250
307 308 309 309 309 308 307 306 305 304 304 304 305 305 305 305 305 305 306 306 306 305 305 304 304 304 303 302 302 302 301 298 294 289 287 284 280 274 269 266 262 258 254
305 306 307 307 307 306 305 303 302 301 300 300 301 301 302 302 302 302 303 304 303 303 302 301 300 299 298 298 297 296 295 294 292 289 285 283 281 276 270 267 263 259 257
303 304 305 306 305 304 303 302 300 299 299 299 298 299 299 299 300 300 301 301 301 301 300 299 297 296 295 294 293 291 290 289 288 286 284 281 279 276 271 266 263 260 258
301 302 303 304 303 302 301 300 299 298 298 298 297 297 297 297 297 298 299 299 299 299 298 297 296 295 293 292 290 288 286 285 284 282 281 278 276 273 271 267 263 261 259
299 300 300 301 301 300 298 297 296 296 296 296 296 295 295 295 295 296 296 296 296 296 296 295 295 294 292 290 289 286 284 282 280 278 277 275 272 271 269 267 264 260 258
296 297 298 298 298 297 295 293 293 293 294 294 294 294 294 294 294 295 294 294 294 294 294 293 293 292 291 289 287 285 283 281 278 276 273 271 269 267 265 264 262 260 258
294 295 295 296 295 294 292 291 291 292 293 293 293 293 293 294 294 294 294 294 294 293 293 292 291 290 289 287 286 284 282 280 277 275 272 269 266 264 262 261 260 258 256
291 292 293 293 293 292 290 289 289 290 291 292 293 293 293 293 293 294 294 294 294 293 293 292 290 289 287 286 284 282 280 278 275 273 270 267 264 261 259 258 257 255 254
289 289 290 290 290 289 289 289 289 289 290 292 292 293 293 293 294 294 295 295 295 294 293 291 290 288 287 285 283 281 279 277 274 271 268 265 263 260 257 254 253 252 250